Preview of NWS' New Version of Forecast
This preview is not operational and should not be used for support decisions.

Regional Weather Roundup (RWR)

Issued by National Weather Service (NWS)

                            
000
ASCA42 TJSJ 192310
RWRPR 
PUERTO RICO/U.S. VIRGIN ISLANDS HOURLY WEATHER ROUNDUP
NATIONAL WEATHER SERVICE SAN JUAN PR
700 PM AST MON AUG 19 2019

PRZ001>002-007>008-010-200000-
PUERTO RICO
  
CITY           SKY/WX    TMP DP  RH WIND       PRES   REMARKS
SAN JUAN LMM   MOCLDY    82  79  89 E8        30.00S HX  93           
AGUADILLA      CLEAR     77  75  94 E7        29.99F                  
CEIBA          CLEAR     82  77  83 E7        30.01S HX  91           
$$

VIZ001>002-200000-
U.S. VIRGIN ISLANDS
  
CITY           SKY/WX    TMP DP  RH WIND       PRES   REMARKS
CHARLOTTE AMA  PTCLDY    84  79  84 NE9       30.00R HX  96           
CHRISTIANSTED  PTCLDY    82  75  78 NE8       30.01R                  
$$

HOURLY WEATHER ROUNDUP FOR THE NEWS MEDIA
  
CITY           SKY/WX    TMP DP  RH WIND       PRES   REMARKS
ORLANDO        FAIR      81  73  76 N3        30.03F                  
NEW YORK       MOCLDY    78  72  81 S12       29.99R                  
NEWARK         MOCLDY    82  71  69 S9        29.97R                  
CHICAGO        PTSUNNY   82  69  64 E8        29.98F                  
HARTFORD       FAIR      79  73  82 W10       29.95R                  
BOSTON         MOCLDY    81  66  60 W16G24    29.91R                  
DALLAS         MOSUNNY  101  66  31 SE12G18   29.91S HX 105           
PHILADELPHIA   MOCLDY    85  72  65 SE6       29.97R HX  91           
LOS ANGELES    MOSUNNY   74  61  63 W15       29.92F                  
WASHINGTON DC  PTSUNNY   90  70  51 CALM      29.96S HX  95